[[{"header":{"parameterUnit":"m.s-1","parameterCategory":1,"la1":30.2991,"la2":30.254,"lo1":-89.0895,"lo2":-89.0444,"dy":0.0017,"dx":0.0017,"nx":28,"ny":28,"refTime":"2024-03-18T03:00:00:Z","depth":0,"parameterNumber":2,"parameterNumberName":"U-component_of_WINDS"},"data":[0,0,0,0,0,0,0,0,0,0,0,0,0,0,0,0,0,0,0,0,0,0,0,0,0,0,0,0,0,0,0,0,0,0,0,0,0,0,0,0,0,0,0,0,0,0,0,0,0,0,0,0,0,0,0,0,0,0,1.2379,1.238,0,1.2479,1.248,1.2481,1.2544,1.2545,1.2545,1.2545,1.2648,1.2651,1.2653,0,0,0,0,0,0,0,0,0,0,0,0,0,1.2244,1.2247,1.2379,1.238,1.2382,1.2478,1.248,1.2481,1.2544,1.2545,1.2545,1.2545,1.2648,1.265,1.2653,0,0,0,0,0,0,0,0,0,0,0,0,0,1.2319,1.2247,1.2379,1.2425,1.243,1.2478,1.248,1.2482,1.2544,1.2545,1.2545,1.2546,1.2647,1.265,1.2654,1.2665,0,0,1.2665,1.2666,0,0,0,0,0,0,0,0,1.2315,1.2324,1.2417,1.2422,1.2427,1.25,1.247,1.2543,1.2544,1.2501,1.2545,1.2546,1.2598,1.2606,1.2624,1.267,1.2674,1.2665,1.2667,1.2669,1.267,0,0,0,0,0,0,0,1.231,1.232,1.2419,1.2418,1.2424,1.244,1.2452,1.2484,1.2545,1.2504,1.2509,1.252,1.2601,1.262,1.2626,1.2676,1.2665,1.2668,1.267,1.2672,1.2735,1.2735,0,0,0,0,0,0,1.2297,1.2315,1.2415,1.2421,1.2371,1.2442,1.2455,1.2476,1.2545,1.2556,1.252,1.2523,1.2613,1.2622,1.263,1.2647,1.2669,1.2672,1.2674,1.2736,1.2735,1.2735,0,0,0,0,0,0,1.2294,1.2305,1.2411,1.237,1.2385,1.2444,1.2467,1.2477,1.2496,1.2556,1.2568,1.2527,1.2614,1.2625,1.2656,1.2652,1.2674,1.2677,1.2736,1.2736,1.2735,1.2681,0,0,0,0,0,0,1.229,1.2304,1.2308,1.2369,1.2386,1.2434,1.2467,1.2479,1.2502,1.2507,1.2567,1.2577,1.2616,1.265,1.2659,1.2657,1.268,1.2737,1.2736,1.2735,1.2684,1.2679,1.2675,0,0,0,0,0,1.2285,1.229,1.2308,1.232,1.2393,1.2434,1.2444,1.2488,1.2501,1.2506,1.2545,1.2575,1.2651,1.2652,1.2663,1.2662,1.2737,1.2736,1.2735,1.2686,1.268,1.2675,0,0,0,0,0,0,1.2227,1.2299,1.232,1.2345,1.2383,1.2445,1.2452,1.248,1.2516,1.2519,1.2572,1.2585,1.261,1.264,1.264,1.2677,1.2698,1.2699,1.2656,1.2651,1.2647,1.2639,1.2683,0,0,0,0,0,1.2217,1.2244,1.2305,1.2321,1.2339,1.2392,1.2412,1.2442,1.2484,1.25,1.2542,1.2581,1.2614,1.2634,1.2668,1.2689,1.2702,1.2693,1.2689,1.2685,1.2685,1.2697,1.2694,1.2731,1.2731,1.2731,0,0,1.2197,1.224,1.2253,1.2311,1.2344,1.237,1.2405,1.2432,1.2452,1.2505,1.2535,1.2567,1.2615,1.264,1.2653,1.2665,1.2678,1.2684,1.268,1.2682,1.2696,1.2692,1.2689,1.273,1.2731,1.2731,0,0,1.2174,1.2209,1.2226,1.2258,1.2308,1.2343,1.2347,1.2405,1.2427,1.2459,1.2498,1.2524,1.2579,1.2611,1.2635,1.2623,1.2652,1.2633,1.2609,1.2621,1.2618,1.2615,1.261,1.2608,1.2633,1.2633,1.2633,0,1.2143,1.2184,1.2231,1.2255,1.2279,1.2327,1.2345,1.2374,1.2432,1.2447,1.246,1.253,1.2566,1.2599,1.2596,1.2614,1.262,1.2626,1.2614,1.2612,1.2611,1.2607,1.2605,1.263,1.263,1.2631,1.2631,0,1.2143,1.2171,1.2179,1.2233,1.2258,1.2278,1.2328,1.2348,1.2377,1.241,1.2442,1.2486,1.2529,1.254,1.2568,1.2577,1.2582,1.2604,1.2626,1.2604,1.2601,1.2599,1.2626,1.2627,1.2628,1.2629,0,0,1.2086,1.2165,1.2167,1.2192,1.225,1.2273,1.2296,1.2337,1.2353,1.2391,1.2411,1.2457,1.2477,1.2504,1.2536,1.2546,1.2533,1.2567,1.2569,1.2558,1.2544,1.2527,1.2524,1.2553,1.2553,1.2553,1.254,0,1.207,1.2113,1.2156,1.2184,1.221,1.2256,1.2276,1.2314,1.2346,1.2373,1.241,1.244,1.2465,1.2481,1.2494,1.2532,1.2531,1.2534,1.2572,1.2572,1.2557,1.2523,1.2504,1.249,1.2539,1.2539,1.2539,0,1.2058,1.2093,1.2123,1.2178,1.2191,1.2208,1.2249,1.2275,1.2318,1.2341,1.2371,1.2405,1.2431,1.2451,1.2488,1.2489,1.2507,1.2528,1.2529,1.2533,1.2553,1.2525,1.2487,1.2484,1.2538,1.2538,1.2538,0,1.2012,1.2067,1.2092,1.2112,1.2177,1.2188,1.2216,1.226,1.2282,1.2318,1.2333,1.2372,1.2393,1.2423,1.2467,1.2477,1.2498,1.2522,1.2518,1.2516,1.2519,1.2518,1.2482,1.2533,1.2533,1.2533,1.2533,0,1.1989,1.2005,1.2072,1.2087,1.2107,1.2156,1.2174,1.2206,1.2245,1.2267,1.231,1.233,1.2388,1.2414,1.2449,1.2474,1.2483,1.2502,1.2511,1.2497,1.2495,1.2509,1.2511,1.2532,1.2532,1.2532,1.2533,0,1.194,1.1986,1.2016,1.2075,1.209,1.2102,1.2152,1.2169,1.2204,1.2231,1.2241,1.2295,1.2329,1.2376,1.2424,1.2448,1.2467,1.2482,1.2452,1.2457,1.2449,1.2449,1.242,1.2418,1.2471,1.247,1.247,0,1.1922,1.1936,1.1996,1.2014,1.204,1.2068,1.2091,1.214,1.2162,1.2212,1.2222,1.2259,1.2291,1.2343,1.2387,1.2424,1.244,1.2427,1.2446,1.2431,1.2438,1.2436,1.2437,1.2422,1.2421,1.2421,1.242,0,1.1885,1.1907,1.1938,1.1976,1.2001,1.2034,1.2069,1.2081,1.2138,1.216,1.2195,1.2219,1.2269,1.2304,1.2347,1.2376,1.2407,1.2414,1.2415,1.2401,1.2382,1.2391,1.2438,1.2414,1.2415,1.2415,1.2416,1.2416,1.1851,1.1864,1.1909,1.1941,1.1973,1.2004,1.2022,1.2059,1.2088,1.2132,1.216,1.2192,1.2236,1.2297,1.2324,1.2351,1.2363,1.2365,1.2365,1.2364,1.2359,1.2379,1.2359,1.2359,1.2359,1.236,1.236,0,1.1815,1.1845,1.1875,1.1922,1.1947,1.1975,1.2014,1.2034,1.2062,1.21,1.213,1.217,1.2205,1.2252,1.229,1.2302,1.2317,1.231,1.2309,1.2315,1.2346,1.2341,1.2297,1.2297,1.2297,1.2297,1.2297,1.2297,1.1799,1.1823,1.185,1.189,1.1921,1.1953,1.1974,1.2003,1.2033,1.2075,1.2104,1.2134,1.2175,1.2217,1.225,1.2263,1.2274,1.2263,1.228,1.2307,1.2313,1.2318,1.2314,1.2265,1.2265,1.2247,1.2247,1.2246]},{"header":{"parameterUnit":"m.s-1","parameterCategory":1,"la1":30.2991,"la2":30.254,"lo1":-89.0895,"lo2":-89.0444,"dy":0.0017,"dx":0.0017,"nx":28,"ny":28,"refTime":"2024-03-18T03:00:00:Z","depth":0,"parameterNumber":3,"parameterNumberName":"V-component_of_WINDS"},"data":[0,0,0,0,0,0,0,0,0,0,0,0,0,0,0,0,0,0,0,0,0,0,0,0,0,0,0,0,0,0,0,0,0,0,0,0,0,0,0,0,0,0,0,0,0,0,0,0,0,0,0,0,0,0,0,0,0,0,1.0797,1.0797,0,1.0769,1.0768,1.0768,1.0779,1.078,1.0781,1.0781,1.075,1.0748,1.0747,0,0,0,0,0,0,0,0,0,0,0,0,0,1.0858,1.0857,1.0797,1.0797,1.0797,1.0769,1.0768,1.0768,1.0779,1.078,1.0781,1.0782,1.075,1.0748,1.0747,0,0,0,0,0,0,0,0,0,0,0,0,0,1.0831,1.0857,1.0797,1.0799,1.0799,1.0769,1.0768,1.0768,1.0779,1.078,1.0781,1.0782,1.0751,1.0749,1.0746,1.0712,0,0,1.074,1.0739,0,0,0,0,0,0,0,0,1.0832,1.0828,1.0799,1.0799,1.0798,1.0779,1.0778,1.0749,1.0779,1.0786,1.0781,1.0782,1.0758,1.0756,1.0748,1.0711,1.071,1.0739,1.0738,1.0737,1.0736,0,0,0,0,0,0,0,1.0834,1.083,1.0786,1.0799,1.0798,1.08,1.0797,1.0773,1.0767,1.0786,1.0787,1.0783,1.0758,1.075,1.0747,1.0709,1.0739,1.0737,1.0736,1.0735,1.0639,1.0638,0,0,0,0,0,0,1.0837,1.0831,1.0787,1.0785,1.0818,1.0798,1.0795,1.0784,1.0767,1.0766,1.0782,1.0784,1.0753,1.075,1.0746,1.0703,1.0737,1.0735,1.0734,1.0641,1.0639,1.0638,0,0,0,0,0,0,1.0838,1.0832,1.0788,1.0808,1.0803,1.0796,1.0783,1.0783,1.0774,1.0765,1.0763,1.0775,1.0754,1.0749,1.072,1.0702,1.0734,1.0732,1.0642,1.064,1.0638,1.0617,0,0,0,0,0,0,1.084,1.0833,1.0821,1.0808,1.0802,1.0763,1.0782,1.0782,1.0771,1.0773,1.0757,1.0756,1.0754,1.0723,1.0718,1.0699,1.073,1.0644,1.0641,1.0639,1.0619,1.0615,1.0611,0,0,0,0,0,1.0842,1.0816,1.082,1.0815,1.0787,1.0762,1.0759,1.0758,1.077,1.0756,1.075,1.0756,1.0705,1.072,1.0714,1.0695,1.0645,1.0642,1.0639,1.0621,1.0616,1.0611,0,0,0,0,0,0,1.0827,1.0815,1.0819,1.0789,1.0776,1.0764,1.0748,1.0753,1.0736,1.0738,1.0738,1.0734,1.0703,1.0697,1.0714,1.0659,1.0676,1.0672,1.0665,1.0659,1.0655,1.0656,1.0728,0,0,0,0,0,1.082,1.0802,1.0792,1.0767,1.076,1.0755,1.0745,1.0745,1.0732,1.0727,1.0718,1.0705,1.0685,1.0672,1.0654,1.0619,1.0614,1.0602,1.0598,1.0595,1.059,1.0568,1.0562,1.0629,1.0629,1.0629,0,0,1.0806,1.0797,1.0786,1.0763,1.0754,1.0734,1.0751,1.073,1.0714,1.0724,1.0695,1.0688,1.0672,1.0639,1.0624,1.0633,1.0571,1.0591,1.0589,1.0586,1.0565,1.0558,1.0553,1.0627,1.0627,1.0628,0,0,1.0769,1.0762,1.0738,1.0728,1.0714,1.071,1.0704,1.0691,1.0687,1.0658,1.0664,1.0645,1.0613,1.0601,1.059,1.0547,1.0551,1.0541,1.0518,1.0496,1.0491,1.0486,1.0468,1.0461,1.0537,1.0537,1.0537,0,1.0753,1.0724,1.0725,1.0703,1.0691,1.0699,1.0674,1.0664,1.0644,1.0636,1.0646,1.0603,1.0593,1.0556,1.0545,1.0538,1.0529,1.0542,1.0492,1.0487,1.0483,1.0465,1.0458,1.0536,1.0536,1.0536,1.0536,0,1.0703,1.0683,1.0665,1.0645,1.0633,1.0609,1.0605,1.0592,1.0593,1.0588,1.0557,1.0546,1.0524,1.0516,1.0517,1.0478,1.0483,1.0492,1.0509,1.0475,1.0458,1.0451,1.0534,1.0534,1.0535,1.0535,0,0,1.0655,1.0636,1.0629,1.0619,1.0603,1.0587,1.0563,1.0542,1.0529,1.0515,1.0493,1.0464,1.0472,1.046,1.046,1.0442,1.0404,1.0453,1.0452,1.0441,1.0356,1.0347,1.0339,1.0408,1.0407,1.0406,1.0356,0,1.0615,1.0573,1.0573,1.0534,1.0513,1.052,1.0498,1.0485,1.048,1.046,1.0454,1.0433,1.0446,1.0439,1.0421,1.0412,1.0386,1.0416,1.0384,1.0383,1.0385,1.0331,1.0322,1.0276,1.035,1.0349,1.0348,0,1.0563,1.0546,1.0505,1.0489,1.0481,1.0462,1.0441,1.0424,1.0408,1.0405,1.0391,1.0393,1.0366,1.0385,1.0347,1.0367,1.0354,1.0348,1.0346,1.0341,1.0362,1.0322,1.0262,1.0254,1.0339,1.0339,1.034,0,1.0528,1.0496,1.0466,1.0458,1.044,1.0426,1.0418,1.0403,1.039,1.0372,1.0363,1.0342,1.0329,1.0312,1.0308,1.0323,1.0268,1.0288,1.0263,1.0262,1.0249,1.0249,1.0183,1.0245,1.0245,1.0246,1.0246,0,1.0482,1.0455,1.045,1.0432,1.0401,1.0401,1.0371,1.0363,1.035,1.0329,1.0334,1.0314,1.0311,1.0289,1.0285,1.0252,1.0247,1.0242,1.0241,1.024,1.024,1.023,1.0232,1.0244,1.0244,1.0245,1.0245,0,1.0438,1.0434,1.0401,1.0387,1.0382,1.036,1.0347,1.0328,1.0323,1.0296,1.0289,1.0281,1.0255,1.025,1.022,1.0217,1.0177,1.018,1.0182,1.0181,1.0155,1.0156,1.0077,1.0066,1.0138,1.0138,1.0137,0,1.0407,1.0386,1.037,1.0356,1.0347,1.0325,1.0311,1.0309,1.0294,1.0274,1.0257,1.0232,1.0212,1.017,1.016,1.0137,1.0138,1.0112,1.0134,1.0133,1.0133,1.0133,1.013,1.0107,1.0106,1.0105,1.0105,0,1.0352,1.035,1.0331,1.0309,1.0292,1.0276,1.026,1.0248,1.0244,1.0226,1.02,1.0185,1.0153,1.0127,1.0103,1.0093,1.0097,1.0098,1.009,1.0088,1.0088,1.0084,1.0167,1.0099,1.01,1.01,1.0101,1.0101,1.0311,1.0292,1.0277,1.0254,1.0241,1.0226,1.0206,1.0199,1.0177,1.0152,1.0152,1.0123,1.0105,1.0073,1.0062,1.0038,1.0045,1.0035,1.0032,1.0029,1.0024,1.0094,1.0034,1.0034,1.0034,1.0034,1.0034,0,1.0253,1.0243,1.0223,1.0199,1.0181,1.0188,1.017,1.0153,1.0127,1.0111,1.0091,1.0059,1.0034,1.0022,0.9996,0.9979,0.998,0.9972,0.9971,0.9968,1.0021,1.0028,0.9971,0.9971,0.9971,0.9971,0.9971,0.9971,1.0221,1.0188,1.0185,1.0145,1.0135,1.0107,1.0095,1.008,1.0067,1.0032,1.0011,1.0003,0.9988,0.9961,0.9937,0.9934,0.9922,0.9913,0.991,0.9959,0.9965,0.9971,0.9978,0.9911,0.9911,0.9859,0.9859,0.9859]}]]